Smyrna, TN

10:29 PM CDT on May 22, 2017 (GMT -0500)
Smyrna

Weather History for KMQY - August, 2013

Change the Weather History Date:

Wednesday, August 7, 2013

  Actual Average Record
Temperature  
Mean Temperature 77 °F -  
Max Temperature 81 °F 84 °F 104 °F (2007)
Min Temperature 73 °F 67 °F 55 °F (2004)
Cooling Degree Days 12    
Growing Degree Days 27 (Base 50)    
Moisture  
Dew Point 74 °F    
Average Humidity 91    
Maximum Humidity 100    
Minimum Humidity 76    
Precipitation  
Precipitation 0.00 in - - ()
Sea Level Pressure  
Sea Level Pressure 29.99 in    
Wind  
Wind Speed 3 mph (South)    
Max Wind Speed 12 mph    
Max Gust Speed -    
Visibility 8 miles    
Events Rain , Thunderstorm    
Averages and records for this station are not official NWS values.
T = Trace of Precipitation, MM = Missing Value Source: NWS Daily Summary

Daily Weather History Graph

Daily Weather History Graph

Search for Another Location

Airport or City:

Trip Planner

Search our weather history database for the weather conditions in past years. The results will help you decide how hot, cold, wet, or windy it might be!

Date:

Astronomy

Aug. 07, 2013 Rise Set
Actual Time 5:58 AM CDT 7:44 PM CDT
Civil Twilight 5:30 AM CDT 8:12 PM CDT
Nautical Twilight 4:56 AM CDT 8:45 PM CDT
Astronomical Twilight 4:21 AM CDT 9:21 PM CDT
Moon 6:42 AM CDT (8/7) 7:56 PM CDT (8/7)
Length of Visible Light 14h 41m
Length of Day
13h 46m
New Moon, 1% of the Moon is Illuminated
Aug 7
New Moon
Aug 14
First Quarter
Aug 20
Full
Aug 28
Last Quarter
Sep 5
New

Hourly Weather History & Observations

Time (CDT) Temp. Heat Index Dew Point Humidity Pressure Visibility Wind Dir Wind Speed Gust Speed Precip Events Conditions
12:56 AM 77.0 °F - 75.9 °F 96% 30.00 in 10.0 mi Calm Calm - 0.00 in   Mostly Cloudy
1:56 AM 75.9 °F - 75.9 °F 100% 29.99 in 6.0 mi Calm Calm - N/A   Scattered Clouds
2:03 AM 75.2 °F - 75.2 °F 100% 29.98 in 5.0 mi Calm Calm - N/A   Mostly Cloudy
2:56 AM 75.9 °F - 75.9 °F 100% 29.99 in 8.0 mi Calm Calm - N/A   Mostly Cloudy
3:38 AM 75.2 °F - 75.2 °F 100% 29.96 in 6.0 mi Calm Calm - N/A   Scattered Clouds
3:56 AM 74.8 °F - 74.8 °F 100% 29.97 in 6.0 mi SSE 3.5 mph - N/A   Partly Cloudy
4:56 AM 74.8 °F - 74.8 °F 100% 29.96 in 5.0 mi SSE 4.6 mph - N/A   Scattered Clouds
5:56 AM 74.8 °F - 74.8 °F 100% 29.98 in 5.0 mi SE 4.6 mph - 0.00 in   Mostly Cloudy
6:56 AM 75.9 °F - 74.8 °F 96% 29.99 in 10.0 mi South 8.1 mph - N/A   Mostly Cloudy
7:56 AM 75.9 °F - 74.8 °F 96% 30.01 in 10.0 mi SSW 6.9 mph - N/A   Mostly Cloudy
8:56 AM 77.9 °F - 73.9 °F 88% 30.01 in 10.0 mi South 4.6 mph - N/A   Scattered Clouds
9:56 AM 79.0 °F - 73.9 °F 84% 30.01 in 10.0 mi SSW 4.6 mph - N/A   Partly Cloudy
10:01 AM 78.8 °F - 73.4 °F 83% 30.00 in 10.0 mi South 5.8 mph - 0.00 in Rain , Thunderstorm Thunderstorms and Rain
10:56 AM 75.9 °F - 73.9 °F 94% 30.05 in 4.0 mi WSW 11.5 mph - 0.00 in Rain , Thunderstorm Thunderstorms and Rain
11:03 AM 75.2 °F - 71.6 °F 89% 30.04 in 8.0 mi WSW 11.5 mph - 0.00 in Rain , Thunderstorm Thunderstorms and Rain
11:56 AM 73.9 °F - 72.9 °F 96% 30.01 in 3.0 mi SSW 5.8 mph - 0.00 in Rain , Thunderstorm Thunderstorms and Rain
12:56 PM 73.9 °F - 72.9 °F 96% 30.01 in 10.0 mi South 4.6 mph - 0.00 in Rain Light Rain
1:56 PM 75.9 °F - 73.9 °F 94% 30.01 in 10.0 mi South 6.9 mph - 0.00 in   Partly Cloudy
2:56 PM 77.9 °F - 73.9 °F 88% 29.98 in 10.0 mi South 8.1 mph - N/A   Partly Cloudy
3:56 PM 79.9 °F - 72.0 °F 77% 29.98 in 10.0 mi South 10.4 mph - N/A   Partly Cloudy
4:56 PM 81.0 °F 85.6 °F 72.9 °F 76% 29.96 in 10.0 mi South 5.8 mph - N/A   Clear
5:56 PM 81.0 °F 85.6 °F 72.9 °F 76% 29.95 in 10.0 mi SSW 6.9 mph - 0.00 in   Clear
6:56 PM 79.9 °F - 73.9 °F 82% 29.96 in 10.0 mi South 4.6 mph - N/A   Clear
7:56 PM 77.9 °F - 72.9 °F 84% 29.97 in 10.0 mi SSW 6.9 mph - N/A   Scattered Clouds
8:56 PM 75.9 °F - 72.9 °F 90% 29.98 in 10.0 mi South 5.8 mph - N/A   Partly Cloudy
9:56 PM 74.8 °F - 72.9 °F 94% 30.00 in 10.0 mi South 4.6 mph - N/A   Clear
10:56 PM 74.8 °F - 72.0 °F 91% 29.99 in 10.0 mi Calm Calm - N/A   Clear
11:56 PM 74.8 °F - 72.0 °F 91% 30.00 in 10.0 mi Calm Calm - N/A   Clear